Regional Weather Roundup
Issued by NWS Midland/Odessa, TX

Skip options and go directly to product.
Home | Oldest Version | Previous Version | Current Version | All | Text Only | Save Text | Print | Product List | Glossary Off

Skip product version selection by date and time.   

810
ASUS44 KMAF 102201
RWRMAF
MIDLAND AREA WEATHER ROUNDUP
NATIONAL WEATHER SERVICE MIDLAND TX
400 PM CST WED FEB 10 2016

...IN SOUTHWEST TEXAS AND SOUTHEAST NEW MEXICO...

CITY           SKY/WX    TMP DP  RH WIND       PRES   REMARKS
ALPINE         SUNNY     71   8   8 SW14      30.34F
ANDREWS        FAIR      74  20  13 SW13G20   30.21F
ARTESIA        SUNNY     75  19  12 CALM      30.17F
BIG SPRING     SUNNY     73  26  17 SW16G22   30.22F
CARLSBAD       SUNNY     75  20  12 S8        30.18F
DRYDEN           N/A     77  19  11 S16G22    30.20F
FORT STOCKTON  SUNNY     73  23  15 E5        30.22F
GUAD PASS      SUNNY     66  13  12 W26G32    30.29F
HOBBS          SUNNY     73  14  10 SW12G18   30.21F
MARFA          SUNNY     70  15  12 SW14      30.30F
MIDLAND AIRPK  SUNNY     75  20  13 SW12G18   30.21F
MIDLAND INTL   SUNNY     74  21  13 SW14      30.21F
ODESSA         SUNNY     74  19  12 SW15      30.22F
PECOS          SUNNY     75  24  15 CALM      30.21F
PRESIDIO       FAIR      73  19  13 N3        30.24F
SEMINOLE       SUNNY     74  20  13 W14       30.21F
SNYDER           N/A     75  24  14 SW20      30.17F
WINK           SUNNY     74  21  13 SW8       30.20F
$$
...OTHER STATIONS IN TEXAS...

CITY           SKY/WX    TMP DP  RH WIND       PRES   REMARKS
ABILENE        SUNNY     77  25  14 SW15      30.15F
AMARILLO       SUNNY     78  12   8 W15       30.08F
AUSTIN         SUNNY     73  33  23 S13       30.22F
BROWNSVILLE    SUNNY     75  37  25 S13       30.30F
CORPUS CHRISTI MOSUNNY   77  43  29 SE16      30.26F
DALLAS FTW     SUNNY     73  31  21 SW17      30.11F
DEL RIO        SUNNY     78  25  14 SE9       30.20F
EL PASO        SUNNY     69  14  12 CALM      30.26F
HOUSTON INT    SUNNY     70  31  23 S8        30.25F
LUBBOCK        SUNNY     77  15   9 W21       30.14F
SAN ANGELO     SUNNY     79  19  10 W15       30.18F
SAN ANTONIO    SUNNY     74  31  20 SW13      30.24F
WACO           SUNNY     73  31  21 SW12      30.18F
WICHITA FALLS  NOT AVBL
$$
...OTHER LOCATIONS IN NEW MEXICO...

CITY           SKY/WX    TMP DP  RH WIND       PRES   REMARKS
ALAMAGORDO     SUNNY     68  16  13 N3        30.28F
ALBUQUERQUE    MOSUNNY   60  16  18 VRB3      30.32F
CANNON AFB     NOT AVBL
CLOVIS         SUNNY     73  18  12 W14G24    30.16F
HOLLOMAN AFB   NOT AVBL
ROSWELL        SUNNY     74  18  12 S10       30.18F
RUIDOSO        SUNNY     59  10  14 NW14G23   30.34S
SANTA FE       SUNNY     59  17  19 SW13G18   30.31F
TRUTH OR CONSE SUNNY     67  13  12 S12       30.27F
TUCUMCARI      SUNNY     78   3   5 W12G18    30.09F
$$

USA.gov is the U.S. government's official web portal to all federal, state and local government web resources and services.